Погода в Намцах

Россия / Республика Саха (Якутия)     62°43′09″N   129°39′41″E
темп.,
°C
ветер,
м/с
пор.,
м/с
влажн.,
%
обл.,
%
осадки,
мм/ч
давл.,
гПа
погр.,
м
27 февраля, сб
сб2700:00−35всв129918 0.0 103319
03:00−35всв229943 0.0 103221
06:00−35всв229881 0.0 103123
09:00−34всв249870 0.0 103093
12:00−28всв359457 0.0 1029311
15:00−25всв369373 0.0 1024392
18:00−27всв2396100 0.0 102464
21:00−28св2496100 0.0 102190
28 февраля, вс
вс2800:00−29ссв2295100 0.0 101931
03:00−29с2293100 0.0 101728
06:00−29сз2291100 0.0 101730
09:00−28зсз2390100 0.0 1017109
12:00−24зсз3691100 0.0 1019465
15:00−23зсз4790100 0.0 1019608
18:00−27зсз3394100 0.0 102257
21:00−27з3993100 0.0 1023469
1 марта, пн
пн100:00−27зсз3997100 0.1 1024640
03:00−27з3896100 0.3 1024658
06:00−28з2797100 0.1 1024516
09:00−27зсз3793100 0.3 1025729
12:00−26зсз3589100 0.1 1025821
15:00−25зсз3589100 0.2 1025929
18:00−26з2596100 0.1 1026197
21:00−27з3696100 0.2 1026247
2 марта, вт
вт200:00−29з249699 0.1 1026129
03:00−31з239699 0.1 102572
06:00−31зюз229799 0.0 102630
09:00−32зюз229699 0.1 102661
12:00−28з238999 0.0 1026461
15:00−26зсз1284100 0.0 1025750
18:00−29з1194100 0.0 102519
21:00−29зсз1297100 0.1 102619
3 марта, ср
ср300:00−30зсз1198100 0.1 102519
03:00−30сз1198100 0.2 102519
06:00−30сз1198100 0.1 102521
09:00−30сз1197100 0.1 1024109
12:00−28сз2289100 0.1 1022434
15:00−27сз2388100 0.1 1021598
18:00−29зсз2396100 0.1 101957
21:00−30зсз259698 0.1 1018185